Location: Temple Hill
(37.3073°N, 88.6303°W)
Time: 17:31:23
(UTC+00:00)

Cosmos 2237 Rocket - Pass Details

Date: 23 November 2020
Orbit: 833 x 851 km, 71.0° (Epoch: 19 January)

Event Time Altitude Azimuth Distance (km) Brightness Sun altitude
Rises 22:56:36 0° 190° (S) 3,363 5.8 -4.0°
Reaches altitude 10° 22:59:03 10° 186° (S) 2,433 5.0 -4.4°
Maximum altitude 23:04:31 60° 108° (ESE) 950 2.3 -5.4°
Drops below altitude 10° 23:10:02 10° 30° (NNE) 2,452 4.2 -6.4°
Sets 23:12:31 0° 27° (NNE) 3,392 4.9 -6.9°
